H1 CPF 1 NER 2019 1 1 9 5011 glonass106 H2 0705201 9106 32275 2019 1 1 0 0 0 2019 1 4 23 45 0 900 1 1 0 0 0 H9 10 0 58484 0.00000 0 5830961.340 9492271.964 22952794.685 10 0 58484 900.00000 0 4291992.243 11818035.468 22199605.485 10 0 58484 1800.00000 0 2994291.304 14151401.761 21015541.820 10 0 58484 2700.00000 0 1954011.737 16424257.810 19423542.338 10 0 58484 3600.00000 0 1174436.838 18568113.560 17454462.694 10 0 58484 4500.00000 0 646059.244 20516824.908 15146482.757 10 0 58484 5400.00000 0 347205.592 22209236.884 12544371.454 10 0 58484 6300.00000 0 245179.975 23591636.995 9698622.727 10 0 58484 7200.00000 0 297877.628 24619916.181 6664478.836 10 0 58484 8100.00000 0 455800.359 25261346.788 3500859.530 10 0 58484 9000.00000 0 664388.216 25495902.750 269217.681 10 0 58484 9900.00000 0 866568.333 25317066.129 -2967656.176 10 0 58484 10800.00000 0 1005412.488 24732085.766 -6146856.883 10 0 58484 11700.00000 0 1026790.172 23761676.803 -9206591.018 10 0 58484 12600.00000 0 881904.019 22439173.459 -12087382.056 10 0 58484 13500.00000 0 529599.377 20809170.515 -14733230.345 10 0 58484 14400.00000 0 -61650.667 18925710.579 -17092704.867 10 0 58484 15300.00000 0 -912169.693 16850093.250 -19119945.149 10 0 58484 16200.00000 0 -2029979.300 14648398.206 -20775553.720 10 0 58484 17100.00000 0 -3410224.788 12388825.951 -22027361.846 10 0 58484 18000.00000 0 -5035150.306 10138967.583 -22851053.791 10 0 58484 18900.00000 0 -6874625.550 7963117.463 -23230637.848 10 0 58484 19800.00000 0 -8887202.927 5919740.701 -23158755.335 10 0 58484 20700.00000 0 -11021661.784 4059200.685 -22636821.858 10 0 58484 21600.00000 0 -13218976.001 2421840.694 -21674998.345 10 0 58484 22500.00000 0 -15414623.494 1036498.778 -20291992.519 10 0 58484 23400.00000 0 -17541141.717 -80483.121 -18514694.641 10 0 58484 24300.00000 0 -19530822.979 -925715.577 -16377654.467 10 0 58484 25200.00000 0 -21318437.308 -1508665.766 -13922409.343 10 0 58484 26100.00000 0 -22843869.254 -1851014.525 -11196676.334 10 0 58484 27000.00000 0 -24054558.460 -1985494.628 -8253423.923 10 0 58484 27900.00000 0 -24907641.893 -1954260.429 -5149841.212 10 0 58484 28800.00000 0 -25371707.955 -1806858.649 -1946224.856 10 0 58484 29700.00000 0 -25428088.976 -1597887.011 1295194.457 10 0 58484 30600.00000 0 -25071637.933 -1384440.554 4511462.875 10 0 58484 31500.00000 0 -24310956.929 -1223454.362 7640127.579 10 0 58484 32400.00000 0 -23168068.060 -1169055.782 10620450.202 10 0 58484 33300.00000 0 -21677540.693 -1270038.639 13394585.633 10 0 58484 34200.00000 0 -19885112.014 -1567566.670 15908703.119 10 0 58484 35100.00000 0 -17845858.822 -2093203.574 18114028.014 10 0 58484 36000.00000 0 -15621997.131 -2867353.180 19967784.251 10 0 58484 36900.00000 0 -13280401.498 -3898175.890 21434019.671 10 0 58484 37800.00000 0 -10889947.379 -5181027.500 22484298.845 10 0 58484 38700.00000 0 -8518786.783 -6698444.713 23098250.602 10 0 58484 39600.00000 0 -6231670.135 -8420678.751 23263960.236 10 0 58484 40500.00000 0 -4087424.930 -10306755.782 22978199.303 10 0 58484 41400.00000 0 -2136695.119 -12306020.997 22246488.789 10 0 58484 42300.00000 0 -420034.354 -14360102.972 21082994.464 10 0 58484 43200.00000 0 1033568.612 -16405217.553 19510256.188 10 0 58484 44100.00000 0 2207671.892 -18374716.168 17558755.910 10 0 58484 45000.00000 0 3098829.723 -20201773.031 15266332.108 10 0 58484 45900.00000 0 3716491.057 -21822099.672 12677451.258 10 0 58484 46800.00000 0 4082352.519 -23176573.641 9842349.732 10 0 58484 47700.00000 0 4229193.470 -24213671.433 6816062.176 10 0 58484 48600.00000 0 4199242.857 -24891603.504 3657354.833 10 0 58484 49500.00000 0 4042147.234 -25180061.403 427584.290 10 0 58484 50400.00000 0 3812626.334 -25061503.087 -2810496.016 10 0 58484 51300.00000 0 3567915.945 -24531921.780 -5993958.037 10 0 58484 52200.00000 0 3365106.985 -23601065.429 -9060925.885 10 0 58484 53100.00000 0 3258494.164 -22292096.969 -11951782.589 10 0 58484 54000.00000 0 3297047.292 -20640709.216 -14610332.841 10 0 58484 54900.00000 0 3522113.074 -18693731.261 -16984898.609 10 0 58484 55800.00000 0 3965445.426 -16507284.614 -19029325.910 10 0 58484 56700.00000 0 4647648.388 -14144566.290 -20703883.025 10 0 58484 57600.00000 0 5577098.158 -11673351.476 -21976032.777 10 0 58484 58500.00000 0 6749390.512 -9163320.124 -22821063.986 10 0 58484 59400.00000 0 8147337.668 -6683318.855 -23222570.197 10 0 58484 60300.00000 0 9741515.586 -4298672.014 -23172766.737 10 0 58484 61200.00000 0 11491339.484 -2068653.517 -22672640.243 10 0 58484 62100.00000 0 13346623.281 -44224.133 -21731928.012 10 0 58484 63000.00000 0 15249558.368 1733872.420 -20368927.680 10 0 58484 63900.00000 0 17137029.421 3236576.102 -18610140.908 10 0 58484 64800.00000 0 18943170.861 4447479.933 -16489757.861 10 0 58484 65700.00000 0 20602057.266 5363262.880 -14048992.297 10 0 58484 66600.00000 0 22050415.264 5993569.414 -11335279.974 10 0 58484 67500.00000 0 23230243.345 6360342.190 -8401355.837 10 0 58484 68400.00000 0 24091229.715 6496637.233 -5304227.797 10 0 58484 69300.00000 0 24592866.618 6444972.727 -2104067.225 10 0 58484 70200.00000 0 24706172.213 6255282.251 1136962.104 10 0 58484 71100.00000 0 24414947.578 5982559.892 4355913.551 10 0 58484 72000.00000 0 23716515.890 5684297.637 7490281.687 10 0 58484 72900.00000 0 22621912.704 5417824.141 10479216.763 10 0 58484 73800.00000 0 21155519.276 5237657.991 13264705.766 10 0 58484 74700.00000 0 19354154.329 5192987.757 15792696.860 10 0 58484 75600.00000 0 17265662.243 5325385.640 18014145.531 10 0 58484 76500.00000 0 14947056.642 5666851.470 19885962.402 10 0 58484 77400.00000 0 12462296.748 6238269.734 21371844.693 10 0 58484 78300.00000 0 9879788.915 7048344.901 22442975.876 10 0 58484 79200.00000 0 7269716.879 8093060.206 23078580.573 10 0 58484 80100.00000 0 4701311.205 9355683.167 23266324.535 10 0 58484 81000.00000 0 2240170.581 10807318.302 23002552.465 10 0 58484 81900.00000 0 -54254.698 12407984.837 22292359.354 10 0 58484 82800.00000 0 -2130913.446 14108175.266 21149493.964 10 0 58484 83700.00000 0 -3949046.037 15850830.630 19596096.132 10 0 58484 84600.00000 0 -5479640.887 17573650.981 17662272.456 10 0 58484 85500.00000 0 -6706395.210 19211645.216 15385518.016 10 0 58485 0.00000 0 -7626140.887 20699814.339 12809994.591 10 0 58485 900.00000 0 -8248718.365 21975856.050 9985678.298 10 0 58485 1800.00000 0 -8596304.936 22982777.943 6967393.490 10 0 58485 2700.00000 0 -8702225.554 23671308.376 3813750.026 10 0 58485 3600.00000 0 -8609297.818 24002004.761 586005.231 10 0 58485 4500.00000 0 -8367780.802 23946968.849 -2653127.570 10 0 58485 5400.00000 0 -8033015.365 23491096.689 -5840700.440 10 0 58485 6300.00000 0 -7662856.301 22632809.625 -8914757.937 10 0 58485 7200.00000 0 -7315005.667 21384234.843 -11815545.409 10 0 58485 8100.00000 0 -7044360.878 19770827.105 -14486674.435 10 0 58485 9000.00000 0 -6900490.530 17830446.933 -16876222.246 10 0 58485 9900.00000 0 -6925345.378 15611933.438 -18937743.328 10 0 58485 10800.00000 0 -7151301.895 13173231.205 -20631173.394 10 0 58485 11700.00000 0 -7599621.651 10579149.242 -21923608.205 10 0 58485 12600.00000 0 -8279392.061 7898845.436 -22789942.208 10 0 58485 13500.00000 0 -9186993.697 5203141.121 -23213354.965 10 0 58485 14400.00000 0 -10306117.148 2561777.272 -23185636.238 10 0 58485 15300.00000 0 -11608329.262 40726.192 -22707343.748 10 0 58485 16200.00000 0 -13054165.530 -2300330.105 -21787790.811 10 0 58485 17100.00000 0 -14594703.336 -4410250.647 -20444864.185 10 0 58485 18000.00000 0 -16173550.524 -6248322.561 -18704675.703 10 0 58485 18900.00000 0 -17729166.287 -7785706.870 -16601054.309 10 0 58485 19800.00000 0 -19197417.373 -9006383.957 -14174888.157 10 0 58485 20700.00000 0 -20514262.458 -9907560.357 -11473329.390 10 0 58485 21600.00000 0 -21618452.074 -10499521.285 -8548876.874 10 0 58485 22500.00000 0 -22454130.619 -10804936.405 -5458354.614 10 0 58485 23400.00000 0 -22973230.853 -10857649.342 -2261805.858 10 0 58485 24300.00000 0 -23137560.000 -10701003.183 978675.452 10 0 58485 25200.00000 0 -22920489.396 -10385773.738 4200152.870 10 0 58485 26100.00000 0 -22308176.322 -9967798.803 7340071.361 10 0 58485 27000.00000 0 -21300266.402 -9505404.402 10337472.776 10 0 58485 27900.00000 0 -19910046.725 -9056737.475 13134179.087 10 0 58485 28800.00000 0 -18164043.080 -8677118.114 15675920.107 10 0 58485 29700.00000 0 -16101077.880 -8416523.528 17913383.938 10 0 58485 30600.00000 0 -13770827.875 -8317310.036 19803170.027 10 0 58485 31500.00000 0 -11231941.601 -8412269.221 21308626.705 10 0 58485 32400.00000 0 -8549794.549 -8723100.148 22400557.624 10 0 58485 33300.00000 0 -5793974.937 -9259361.996 23057784.005 10 0 58485 34200.00000 0 -3035603.946 -10017951.323 23267552.396 10 0 58485 35100.00000 0 -344600.880 -10983126.249 23025780.576 10 0 58485 36000.00000 0 2212994.212 -12127077.093 22337137.077 10 0 58485 36900.00000 0 4577530.232 -13411020.214 21214952.871 10 0 58485 37800.00000 0 6697983.935 -14786770.063 19680966.687 10 0 58485 38700.00000 0 8533836.023 -16198724.447 17764908.436 10 0 58485 39600.00000 0 10056507.248 -17586180.611 15503928.179 10 0 58485 40500.00000 0 11250295.613 -18885885.722 12941880.997 10 0 58485 41400.00000 0 12112776.335 -20034715.256 10128480.841 10 0 58485 42300.00000 0 12654648.512 -20972366.973 7118339.240 10 0 58485 43200.00000 0 12899035.636 -21643957.210 3969907.046 10 0 58485 44100.00000 0 12880269.991 -22002409.902 744339.528 10 0 58485 45000.00000 0 12642212.706 -22010537.109 -2495692.997 10 0 58485 45900.00000 0 12236180.998 -21642722.657 -5687225.614 10 0 58485 46800.00000 0 11718570.778 -20886136.971 -8768226.206 10 0 58485 47700.00000 0 11148275.765 -19741430.991 -11678805.226 10 0 58485 48600.00000 0 10584012.920 -18222878.966 -14362383.778 10 0 58485 49500.00000 0 10081667.971 -16357963.211 -16766796.819 10 0 58485 50400.00000 0 9691773.818 -14186417.471 -18845309.534 10 0 58485 51300.00000 0 9457228.901 -11758768.350 -20557527.012 10 0 58485 52200.00000 0 9411352.326 -9134435.186 -21870179.556 10 0 58485 53100.00000 0 9576358.106 -6379467.399 -22757768.477 10 0 58485 54000.00000 0 9962313.166 -3564013.160 -23203060.181 10 0 58485 54900.00000 0 10566623.195 -759624.381 -23197419.297 10 0 58485 55800.00000 0 11374068.263 1963490.251 -22740974.679 10 0 58485 56700.00000 0 12357386.901 4539150.581 -21842615.348 10 0 58485 57600.00000 0 13478384.397 6907717.667 -20519816.551 10 0 58485 58500.00000 0 14689518.952 9018330.059 -18798299.342 10 0 58485 59400.00000 0 15935899.306 10830771.547 -16711530.179 10 0 58485 60300.00000 0 17157610.057 12316893.602 -14300070.033 10 0 58485 61200.00000 0 18292266.997 13461534.211 -11610785.516 10 0 58485 62100.00000 0 19277695.007 14262895.966 -8695937.165 10 0 58485 63000.00000 0 20054615.701 14732368.848 -5612162.506 10 0 58485 63900.00000 0 20569231.440 14893806.400 -2419373.816 10 0 58485 64800.00000 0 20775596.600 14782287.026 820407.843 10 0 58485 65700.00000 0 20637675.829 14442413.779 4044259.377 10 0 58485 66600.00000 0 20131002.197 13926225.372 7189579.295 10 0 58485 67500.00000 0 19243865.006 13290807.499 10195304.125 10 0 58485 68400.00000 0 17977976.843 12595706.039 13003093.726 10 0 58485 69300.00000 0 16348591.399 11900251.846 15558462.233 10 0 58485 70200.00000 0 14384066.647 11260910.369 17811832.777 10 0 58485 71100.00000 0 12124891.125 10728767.973 19719495.762 10 0 58485 72000.00000 0 9622213.518 10347260.870 21244452.467 10 0 58485 72900.00000 0 6935936.226 10150242.132 22357128.229 10 0 58485 73800.00000 0 4132451.566 10160467.888 23035942.033 10 0 58485 74700.00000 0 1282113.999 10388566.216 23267722.013 10 0 58485 75600.00000 0 -1543447.590 10832531.938 23047959.379 10 0 58485 76500.00000 0 -4274067.001 11477768.677 22380896.115 10 0 58485 77400.00000 0 -6843714.623 12297676.678 21279444.824 10 0 58485 78300.00000 0 -9192998.234 13254762.196 19764942.073 10 0 58485 79200.00000 0 -11271387.855 14302222.508 17866739.556 10 0 58485 80100.00000 0 -13039073.018 15385940.624 15621640.388 10 0 58485 81000.00000 0 -14468375.992 16446806.561 13073190.740 10 0 58485 81900.00000 0 -15544662.759 17423268.062 10270839.758 10 0 58485 82800.00000 0 -16266714.255 18254003.756 7268983.512 10 0 58485 83700.00000 0 -16646542.955 18880606.187 4125911.036 10 0 58485 84600.00000 0 -16708663.042 19250161.440 902672.682 10 0 58485 85500.00000 0 -16488845.367 19317616.001 -2338107.118 10 0 58486 0.00000 0 -16032410.230 19047830.334 -5533449.286 10 0 58486 900.00000 0 -15392130.603 18417231.126 -8621247.979 10 0 58486 1800.00000 0 -14625834.762 17414992.770 -11541481.421 10 0 58486 2700.00000 0 -13793810.586 16043694.983 -14237382.811 10 0 58486 3600.00000 0 -12956121.291 14319430.046 -16656547.178 10 0 58486 4500.00000 0 -12169946.880 12271352.625 -18751952.495 10 0 58486 5400.00000 0 -11487063.807 9940690.769 -20482875.013 10 0 58486 6300.00000 0 -10951569.549 7379258.453 -21815681.045 10 0 58486 7200.00000 0 -10597948.216 4647531.210 -22724479.912 10 0 58486 8100.00000 0 -10449558.730 1812364.511 -23191625.686 10 0 58486 9000.00000 0 -10517609.232 -1055550.709 -23208058.341 10 0 58486 9900.00000 0 -10800660.770 -3884389.934 -22773477.995 10 0 58486 10800.00000 0 -11284681.041 -6603942.649 -21896349.130 10 0 58486 11700.00000 0 -11943645.828 -9148292.075 -20593734.854 10 0 58486 12600.00000 0 -12740662.771 -11458316.227 -18890964.435 10 0 58486 13500.00000 0 -13629570.138 -13483907.101 -16821140.467 10 0 58486 14400.00000 0 -14556943.285 -15185816.442 -14424495.040 10 0 58486 15300.00000 0 -15464424.249 -16537052.005 -11747607.251 10 0 58486 16200.00000 0 -16291276.243 -17523767.080 -8842497.099 10 0 58486 17100.00000 0 -16977055.211 -18145607.172 -5765613.252 10 0 58486 18000.00000 0 -17464285.503 -18415500.394 -2576734.498 10 0 58486 18900.00000 0 -17701026.498 -18358901.613 662193.623 10 0 58486 19800.00000 0 -17643221.451 -18012523.242 3888264.113 10 0 58486 20700.00000 0 -17256729.050 -17422607.207 7038831.865 10 0 58486 21600.00000 0 -16518951.506 -16642811.862 10052730.966 10 0 58486 22500.00000 0 -15419990.062 -15731803.728 12871462.054 10 0 58486 23400.00000 0 -13963278.728 -14750656.211 15440326.409 10 0 58486 24300.00000 0 -12165669.026 -13760165.295 17709484.856 10 0 58486 25200.00000 0 -10056961.490 -12818195.440 19634921.170 10 0 58486 26100.00000 0 -7678902.848 -11977167.343 21179291.659 10 0 58486 27000.00000 0 -5083689.974 -11281792.995 22312645.040 10 0 58486 27900.00000 0 -2332042.031 -10767152.815 23012999.318 10 0 58486 28800.00000 0 509079.828 -10457195.236 23266765.033 10 0 58486 29700.00000 0 3369011.502 -10363721.300 23069007.222 10 0 58486 30600.00000 0 6176079.414 -10485896.583 22423541.309 10 0 58486 31500.00000 0 8860337.621 -10810310.797 21342861.159 10 0 58486 32400.00000 0 11356236.080 -11311582.580 19847900.459 10 0 58486 33300.00000 0 13605110.293 -11953484.314 17967631.648 10 0 58486 34200.00000 0 15557389.638 -12690540.032 15738509.532 10 0 58486 35100.00000 0 17174433.317 -13470029.624 13203769.663 10 0 58486 36000.00000 0 18429918.017 -14234315.362 10412594.328 10 0 58486 36900.00000 0 19310719.816 -14923392.987 7419161.726 10 0 58486 37800.00000 0 19817253.877 -15477559.859 4281596.343 10 0 58486 38700.00000 0 19963258.163 -15840087.388 1060840.611 10 0 58486 39600.00000 0 19775030.557 -15959784.492 -2180530.108 10 0 58486 40500.00000 0 19290151.964 -15793343.104 -5379525.961 10 0 58486 41400.00000 0 18555749.645 -15307365.727 -8473970.354 10 0 58486 42300.00000 0 17626374.478 -14479988.397 -11403712.491 10 0 58486 43200.00000 0 16561582.251 -13302029.371 -14111800.580 10 0 58486 44100.00000 0 15423321.555 -11777613.889 -16545592.370 10 0 58486 45000.00000 0 14273238.927 -9924247.578 -18657780.972 10 0 58486 45900.00000 0 13170015.286 -7772334.235 -20407315.833 10 0 58486 46800.00000 0 12166846.116 -5364157.141 -21760200.957 10 0 58486 47700.00000 0 11309171.646 -2752365.648 -22690154.970 10 0 58486 48600.00000 0 10632752.452 1970.610 -23179120.509 10 0 58486 49500.00000 0 10162171.189 2831659.554 -23217613.397 10 0 58486 50400.00000 0 9909823.139 5665941.442 -22804905.123 10 0 58486 51300.00000 0 9875437.552 8433194.995 -21949035.371 10 0 58486 52200.00000 0 10046149.469 11063683.015 -20666654.502 10 0 58486 53100.00000 0 10397118.581 13492223.839 -18982699.061 10 0 58486 54000.00000 0 10892668.650 15660678.229 -16929906.523 10 0 58486 54900.00000 0 11487899.178 17520148.846 -14548178.519 10 0 58486 55800.00000 0 12130701.096 19032801.300 -11883804.738 10 0 58486 56700.00000 0 12764091.159 20173231.618 -8988562.420 10 0 58486 57600.00000 0 13328766.240 20929323.827 -5918708.844 10 0 58486 58500.00000 0 13765769.324 21302562.627 -2733886.504 10 0 58486 59400.00000 0 14019154.232 21307789.082 504037.592 10 0 58486 60300.00000 0 14038536.031 20972410.571 3732175.669 10 0 58486 61200.00000 0 13781418.959 20335099.199 6887842.157 10 0 58486 62100.00000 0 13215203.041 19444034.395 9909771.796 10 0 58486 63000.00000 0 12318784.152 18354764.435 12739308.953 10 0 58486 63900.00000 0 11083679.540 17127777.604 15321544.800 10 0 58486 64800.00000 0 9514630.739 15825885.623 17606380.361 10 0 58486 65700.00000 0 7629657.832 14511529.592 19549495.019 10 0 58486 66600.00000 0 5459561.967 13244121.695 21113202.052 10 0 58486 67500.00000 0 3046896.060 12077533.991 22267175.183 10 0 58486 68400.00000 0 444445.597 11057839.269 22989032.719 10 0 58486 69300.00000 0 -2286718.145 10221398.102 23264768.487 10 0 58486 70200.00000 0 -5079532.637 9593371.673 23089021.808 10 0 58486 71100.00000 0 -7863492.221 9186722.045 22465181.541 10 0 58486 72000.00000 0 -10567345.074 9001741.298 21405322.292 10 0 58486 72900.00000 0 -13121828.156 9026128.855 19929973.852 10 0 58486 73800.00000 0 -15462327.592 9235613.540 18067727.881 10 0 58486 74700.00000 0 -17531354.659 9595094.203 15854688.909 10 0 58486 75600.00000 0 -19280735.131 10060251.012 13333779.525 10 0 58486 76500.00000 0 -20673421.274 10579559.698 10553912.516 10 0 58486 77400.00000 0 -21684851.176 11096624.003 7569045.393 10 0 58486 78300.00000 0 -22303798.914 11552727.902 4437135.168 10 0 58486 79200.00000 0 -22532680.111 11889499.659 1219013.399 10 0 58486 80100.00000 0 -22387300.259 12051574.761 -2022796.565 10 0 58486 81000.00000 0 -21896056.583 11989144.516 -5225296.920 10 0 58486 81900.00000 0 -21098627.324 11660281.730 -8326243.273 10 0 58486 82800.00000 0 -20044203.950 11032944.133 -11265358.480 10 0 58486 83700.00000 0 -18789341.188 10086569.792 -13985508.328 10 0 58486 84600.00000 0 -17395515.869 8813195.904 -16433815.666 10 0 58486 85500.00000 0 -15926497.865 7218052.638 -18562690.850 10 0 58487 0.00000 0 -14445644.110 5319605.833 -20330758.268 10 0 58487 900.00000 0 -13013229.938 3149045.111 -21703661.078 10 0 58487 1800.00000 0 -11683929.414 749238.993 -22654728.206 10 0 58487 2700.00000 0 -10504551.634 -1826802.082 -23165491.463 10 0 58487 3600.00000 0 -9512126.167 -4517890.007 -23226042.747 10 0 58487 4500.00000 0 -8732418.737 -7256970.293 -22835224.768 10 0 58487 5400.00000 0 -8178938.222 -9973684.543 -22000651.910 10 0 58487 6300.00000 0 -7852476.105 -12597078.288 -20738560.944 10 0 58487 7200.00000 0 -7741196.937 -15058341.956 -19073494.531 10 0 58487 8100.00000 0 -7821275.257 -17293471.573 -17037823.602 10 0 58487 9000.00000 0 -8058051.425 -19245738.914 -14671117.660 10 0 58487 9900.00000 0 -8407657.074 -20867868.624 -12019375.129 10 0 58487 10800.00000 0 -8819041.011 -22123832.066 -9134128.498 10 0 58487 11700.00000 0 -9236309.529 -22990183.538 -6071441.564 10 0 58487 12600.00000 0 -9601281.764 -23456883.541 -2890818.354 10 0 58487 13500.00000 0 -9856151.573 -23527575.391 345954.896 10 0 58487 14400.00000 0 -9946142.886 -23219304.310 3576011.955 10 0 58487 15300.00000 0 -9822045.752 -22561691.598 6736629.205 10 0 58487 16200.00000 0 -9442525.336 -21595599.418 9766444.522 10 0 58487 17100.00000 0 -8776105.787 -20371343.044 12606648.550 10 0 58487 18000.00000 0 -7802744.676 -18946526.354 15202124.912 10 0 58487 18900.00000 0 -6514931.033 -17383591.999 17502517.328 10 0 58487 19800.00000 0 -4918260.034 -15747189.350 19463203.152 10 0 58487 20700.00000 0 -3031459.446 -14101470.714 21046154.765 10 0 58487 21600.00000 0 -885865.793 -12507428.941 22220672.748 10 0 58487 22500.00000 0 1475628.927 -11020387.457 22963977.208 10 0 58487 23400.00000 0 4000117.051 -9687747.209 23261646.403 10 0 58487 24300.00000 0 6626638.675 -8547083.981 23107894.692 10 0 58487 25200.00000 0 9288488.232 -7624674.864 22505684.746 10 0 58487 26100.00000 0 11915769.466 -6934514.733 21466671.938 10 0 58487 27000.00000 0 14438093.794 -6477863.189 20010981.833 10 0 58487 27900.00000 0 16787310.959 -6243340.328 18166824.656 10 0 58487 28800.00000 0 18900159.176 -6207566.918 15969953.644 10 0 58487 29700.00000 0 20720725.177 -6336321.781 13462977.057 10 0 58487 30600.00000 0 22202612.081 -6586167.514 10694536.440 10 0 58487 31500.00000 0 23310724.807 -6906475.945 7718366.470 10 0 58487 32400.00000 0 24022598.551 -7241767.728 4592254.171 10 0 58487 33300.00000 0 24329214.684 -7534267.036 1376917.363 10 0 58487 34200.00000 0 24235269.799 -7726562.978 -1865175.742 10 0 58487 35100.00000 0 23758886.607 -7764264.606 -5071022.683 10 0 58487 36000.00000 0 22930778.847 -7598536.427 -8178314.595 10 0 58487 36900.00000 0 21792905.445 -7188406.243 -11126651.246 10 0 58487 37800.00000 0 20396670.760 -6502746.654 -13858719.070 10 0 58487 38700.00000 0 18800746.898 -5521845.336 -16321408.841 10 0 58487 39600.00000 0 17068610.001 -4238496.632 -18466850.694 10 0 58487 40500.00000 0 15265894.349 -2658567.212 -20253346.233 10 0 58487 41400.00000 0 13457675.593 -801010.748 -21646179.548 10 0 58487 42300.00000 0 11705797.237 1302670.102 -22618291.451 10 0 58487 43200.00000 0 10066352.352 3609493.034 -23150804.136 10 0 58487 44100.00000 0 8587425.708 6066553.046 -23233386.402 10 0 58487 45000.00000 0 7307190.459 8613002.848 -22864452.633 10 0 58487 45900.00000 0 6252438.322 11182374.965 -22051191.972 10 0 58487 46800.00000 0 5437603.976 13705149.516 -20809427.288 10 0 58487 47700.00000 0 4864323.630 16111461.219 -19163306.670 10 0 58487 48600.00000 0 4521545.237 18333833.405 -17144833.442 10 0 58487 49500.00000 0 4386184.685 20309825.588 -14793243.554 10 0 58487 50400.00000 0 4424299.400 21984484.445 -12154242.377 10 0 58487 51300.00000 0 4592729.008 23312496.311 -9279115.504 10 0 58487 52200.00000 0 4841132.991 24259951.567 -6223730.764 10 0 58487 53100.00000 0 5114338.576 24805647.455 -3047450.940 10 0 58487 54000.00000 0 5354898.910 24941875.181 188021.522 10 0 58487 54900.00000 0 5505752.689 24674658.840 3419845.112 10 0 58487 55800.00000 0 5512872.193 24023436.643 6585261.395 10 0 58487 56700.00000 0 5327787.110 23020198.460 9622814.614 10 0 58487 57600.00000 0 4909876.954 21708116.461 12473544.797 10 0 58487 58500.00000 0 4228334.664 20139726.872 15082130.962 10 0 58487 59400.00000 0 3263718.018 18374739.575 17397962.250 10 0 58487 60300.00000 0 2009022.804 16477567.618 19376116.449 10 0 58487 61200.00000 0 470231.976 14514680.200 20978227.239 10 0 58487 62100.00000 0 -1333683.122 12551889.736 22173223.920 10 0 58487 63000.00000 0 -3371310.503 10651685.981 22937929.920 10 0 58487 63900.00000 0 -5599872.359 8870728.010 23257509.041 10 0 58487 64800.00000 0 -7966783.310 7257597.959 23125751.354 10 0 58487 65700.00000 0 -10411628.392 5850909.360 22545193.526 10 0 58487 66600.00000 0 -12868479.573 4677848.144 21527071.353 10 0 58487 67500.00000 0 -15268455.621 3753206.280 20091105.280 10 0 58487 68400.00000 0 -17542419.855 3078947.600 18265122.661 10 0 58487 69300.00000 0 -19623704.320 2644323.253 16084523.498 10 0 58487 70200.00000 0 -21450747.556 2426531.333 13591599.328 10 0 58487 71100.00000 0 -22969536.441 2391892.473 10834717.698 10 0 58487 72000.00000 0 -24135750.234 2497491.582 7867387.449 10 0 58487 72900.00000 0 -24916517.203 2693216.172 4747222.441 10 0 58487 73800.00000 0 -25291710.097 2924104.875 1534823.520 10 0 58487 74700.00000 0 -25254725.848 3132906.489 -1707399.467 10 0 58487 75600.00000 0 -24812716.497 3262740.748 -4916442.579 10 0 58487 76500.00000 0 -23986261.382 3259747.536 -8029935.565 10 0 58487 77400.00000 0 -22808494.185 3075611.572 -10987358.050 10 0 58487 78300.00000 0 -21323721.491 2669854.802 -13731219.919 10 0 58487 79200.00000 0 -19585590.939 2011798.473 -16208182.424 10 0 58487 80100.00000 0 -17654886.065 1082110.927 -18370097.738 10 0 58487 81000.00000 0 -15597040.579 -126125.349 -20174946.524 10 0 58487 81900.00000 0 -13479476.389 -1606873.546 -21587655.277 10 0 58487 82800.00000 0 -11368877.041 -3341153.016 -22580777.597 10 0 58487 83700.00000 0 -9328510.539 -5297601.107 -23135026.465 10 0 58487 84600.00000 0 -7415713.241 -7433563.859 -23239647.493 10 0 58487 85500.00000 0 -5679639.562 -9696670.813 -22892626.184 99